Tracking 30923 objects as of 1-Jul-2025
HD Live streaming from Space Station
objects crossing your sky now

DELTA 1 DEB

Track DELTA 1 DEB now!
10-day predictions


NORAD ID: 21371
Int'l Code: 1975-052CR
Perigee: 1,098.3 km
Apogee: 1,329.4 km
Inclination: 99.8 °
Period: 109.6 minutes
Semi major axis: 7584 km
RCS: 0.0521 m2 (small)
Launch date: June 12, 1975
Source: United States (US)
Launch site: AIR FORCE WESTERN TEST RANGE (AFWTR)

Note: This is SATELLITE DEBRIS
Your satellite tracking list
COSMOS 1607
Track 1 satellite(s)




NASA's NSSDC Master Catalog

Two Line Element Set (TLE):
1 21371U 75052CR  25181.50547752  .00000003  00000-0  10971-3 0  9999
2 21371  99.8053 272.6119 0152364 208.9407 218.2026 13.14267016635780
Source of the keplerian elements: AFSPC